Location: Ajisawe
(8.4333°N, 4.3833°E)
Time: 22:35:09
(UTC+00:00)

Vanguard 1 Rocket - Pass Details

Date: 24 April 2021
Orbit: 652 x 4224 km, 34.3° (Epoch: 10 May)

Event Time Altitude Azimuth Distance (km) Brightness Sun altitude
Rises 19:58:58 0° 290° (WNW) 3,524 11.6 -30.9°
Reaches altitude 10° 20:01:06 10° 284° (WNW) 2,812 10.8 -31.4°
Maximum altitude 20:07:39 48° 210° (SSW) 1,857 8.8 -32.9°
Enters shadow 20:09:46 43° 178° (S) 2,194 9.0 -33.4°
